IU1CYJ Weather Reports


time (UTC)temp
F
wind
direction
speed
knots
gust
knots
rain 1hr
in
rain 24hr
in
rain mn
in
humidity
%
barometer
mb
20260508013052 57 0 0.0 0.0 0.00 0.00 0.00 81 1014.3
20260508011605 58 0 0.0 0.0 0.00 0.00 0.00 80 1014.4
20260508010053 58 0 0.0 0.9 0.00 0.00 0.00 78 1014.4
20260508004554 58 0 0.0 0.9 0.00 0.00 0.00 79 1014.4
20260508003053 58 0 0.0 0.0 0.00 0.00 0.00 81 1014.5
20260508001556 59 0 0.0 0.0 0.00 0.00 0.00 81 1014.5
20260508000054 59 0 0.0 0.0 0.00 0.00 0.00 78 1014.3
20260507234602 59 0 0.0 0.0 0.00 0.00 0.00 79 1014.5
20260507233053 59 0 0.0 0.0 0.00 0.00 0.00 80 1014.4
20260507231601 59 0 0.0 0.0 0.00 0.00 0.00 80 1014.5
20260507230101 60 0 0.0 0.0 0.00 0.00 0.00 78 1014.5
20260507224556 60 0 0.0 0.0 0.00 0.00 0.00 78 1014.6
20260507223058 60 0 0.0 0.0 0.00 0.00 0.00 79 1014.4
20260507221600 60 0 0.0 0.0 0.00 0.00 0.00 79 1014.4
20260507220053 60 0 0.0 0.0 0.00 0.00 0.00 80 1014.4
20260507214558 60 0 0.0 0.0 0.00 0.00 0.00 79 1014.3
20260507213056 60 0 0.0 0.0 0.00 0.00 0.00 78 1014.2
20260507211553 61 0 0.0 0.0 0.00 0.00 0.00 76 1014.0
20260507210054 61 0 0.0 0.0 0.00 0.00 0.00 75 1014.0
20260507204554 61 0 0.0 0.0 0.00 0.00 0.00 74 1014.1
20260507203105 62 0 0.0 0.0 0.00 0.00 0.00 73 1014.0
20260507201553 63 0 0.0 0.0 0.00 0.00 0.00 72 1013.7
20260507200054 63 0 0.0 0.9 0.00 0.00 0.00 71 1013.6
20260507194558 63 175 0.0 0.0 0.00 0.00 0.00 71 1013.5
20260507193102 63 0 0.0 0.0 0.00 0.00 0.00 70 1013.3
20260507191558 64 175 0.0 0.0 0.00 0.00 0.00 70 1013.0
20260507190059 64 0 0.0 0.0 0.00 0.00 0.00 69 1013.0
20260507184557 65 0 0.0 0.0 0.00 0.00 0.00 67 1012.9
20260507183106 66 0 0.0 0.9 0.00 0.00 0.00 61 1012.6
20260507181607 67 0 0.0 0.0 0.00 0.00 0.00 55 1012.4
20260507180059 67 0 0.0 0.0 0.00 0.00 0.00 53 1012.3
20260507174609 67 165 0.0 0.9 0.00 0.00 0.00 54 1012.2
20260507173109 68 0 0.0 0.9 0.00 0.00 0.00 51 1012.2
20260507171615 68 0 0.0 2.6 0.00 0.00 0.00 49 1012.0
20260507170100 68 0 0.0 0.9 0.00 0.00 0.00 51 1012.1
20260507164613 69 161 0.0 1.7 0.00 0.00 0.00 52 1011.9
20260507163111 69 157 0.0 3.5 0.00 0.00 0.00 50 1012.0
20260507161606 69 0 0.0 1.7 0.00 0.00 0.00 52 1012.0
20260507160132 69 0 0.9 3.5 0.00 0.00 0.00 50 1012.0
20260507154553 69 0 0.0 2.6 0.00 0.00 0.00 51 1011.9
20260507153055 69 159 0.0 1.7 0.00 0.00 0.00 53 1011.9
20260507151553 68 154 0.0 3.5 0.00 0.00 0.00 52 1012.1
20260507150057 68 153 0.0 1.7 0.00 0.00 0.00 53 1012.0
20260507144555 67 146 0.0 3.5 0.00 0.00 0.00 54 1012.2
20260507143100 67 158 0.0 3.5 0.00 0.00 0.00 54 1012.3
20260507141558 67 0 0.0 1.7 0.00 0.00 0.00 54 1012.4
20260507140051 67 162 0.9 2.6 0.00 0.00 0.00 54 1012.5
20260507134556 67 157 0.9 3.5 0.00 0.00 0.00 54 1012.6
20260507133057 67 153 0.9 2.6 0.00 0.00 0.00 54 1012.7
20260507131604 67 142 0.0 4.3 0.00 0.00 0.00 54 1012.9
20260507130100 67 0 0.0 3.5 0.00 0.00 0.00 55 1013.0
20260507124555 67 157 0.0 4.3 0.00 0.00 0.00 56 1013.1
20260507123051 67 160 0.9 5.2 0.00 0.00 0.00 57 1013.1
20260507121553 67 180 0.0 3.5 0.00 0.00 0.00 58 1013.1
20260507120057 67 153 0.0 4.3 0.00 0.00 0.00 60 1013.2
20260507114600 66 0 0.9 4.3 0.00 0.00 0.00 61 1013.4
20260507113053 66 155 0.9 4.3 0.00 0.00 0.00 60 1013.5
20260507111553 66 128 1.7 4.3 0.00 0.00 0.00 60 1013.7
20260507110114 67 262 0.0 3.5 0.00 0.00 0.00 63 1013.8
20260507104554 67 165 0.9 3.5 0.00 0.00 0.00 66 1013.9
20260507103057 65 159 0.0 2.6 0.00 0.00 0.00 63 1014.2
20260507101559 66 169 0.9 2.6 0.00 0.00 0.00 67 1014.1
20260507100055 64 0 0.0 2.6 0.00 0.00 0.00 66 1014.2
20260507094609 66 171 0.9 3.5 0.00 0.00 0.00 63 1014.2
20260507093058 66 157 0.9 3.5 0.00 0.00 0.00 65 1014.1
20260507091631 66 178 0.9 3.5 0.00 0.00 0.00 63 1014.1
20260507090105 66 159 0.0 1.7 0.00 0.00 0.00 63 1014.1
20260507084558 64 152 0.0 2.6 0.00 0.00 0.00 66 1013.9
20260507083057 63 154 0.0 2.6 0.00 0.00 0.00 70 1013.8
20260507081552 60 157 0.9 2.6 0.00 0.00 0.00 76 1013.8
20260507080055 59 153 0.0 2.6 0.00 0.00 0.00 76 1013.8
20260507074553 59 0 0.0 1.7 0.00 0.00 0.00 77 1013.9
20260507073054 59 0 0.0 1.7 0.00 0.00 0.00 81 1013.9
20260507071557 57 0 0.0 0.9 0.00 0.00 0.00 83 1013.9
20260507070104 58 190 0.0 0.9 0.00 0.00 0.00 82 1013.6
20260507064602 58 0 0.0 4.3 0.00 0.00 0.00 82 1013.7
20260507063057 58 0 0.0 0.9 0.00 0.00 0.00 79 1013.6
20260507061555 57 0 0.0 0.9 0.00 0.00 0.00 81 1013.5
20260507060110 58 0 0.0 0.9 0.00 0.00 0.00 81 1013.3
20260507054556 56 0 0.0 0.9 0.00 0.00 0.00 84 1013.1
20260507053056 56 0 0.0 0.0 0.00 0.00 0.00 85 1012.9
20260507051556 55 0 0.0 0.9 0.00 0.00 0.00 86 1012.8
20260507050100 54 0 0.0 0.0 0.00 0.00 0.00 87 1012.7
20260507044552 54 0 0.0 0.9 0.00 0.03 0.00 88 1012.6
20260507043058 54 0 0.0 1.7 0.00 0.03 0.00 88 1012.4
20260507041556 54 262 0.0 1.7 0.00 0.03 0.00 89 1012.4
20260507040101 53 252 0.0 1.7 0.00 0.03 0.00 89 1012.3
20260507034559 53 0 0.0 0.9 0.00 0.07 0.00 89 1012.2
20260507033054 53 0 0.0 0.9 0.00 0.07 0.00 88 1012.1
20260507031555 53 0 0.0 1.7 0.00 0.07 0.00 88 1011.9
20260507030056 54 186 0.0 3.5 0.00 0.07 0.00 87 1011.9
20260507024600 54 187 0.0 2.6 0.00 0.07 0.00 86 1011.9
20260507023056 54 0 0.0 4.3 0.00 0.07 0.00 86 1011.9
20260507021600 55 259 0.9 1.7 0.00 0.07 0.00 84 1011.9
20260507020059 55 0 0.9 1.7 0.00 0.07 0.00 84 1012.0
20260507014559 55 234 0.0 0.9 0.00 0.07 0.00 84 1011.8